Preview of NWS' New Version of Forecast
This preview is not operational and should not be used for support decisions.

Regional Weather Roundup (RWR)

Issued by Lubbock, TX (LUB)

                            
000
ASUS44 KLUB 200910
RWRLUB
WEST TEXAS WEATHER ROUNDUP
NATIONAL WEATHER SERVICE LUBBOCK TX
300 AM CST WED FEB 20 2019

NOTE: "FAIR" INDICATES FEW OR NO CLOUDS BELOW 12,000 FEET WITH NO
SIGNIFICANT WEATHER AND/OR OBSTRUCTIONS TO VISIBILITY.

TXZ004-006>008-010-012-014-016-OKZ002-201000-
TEXAS PANHANDLE/OKLAHOMA PANHANDLE
  
CITY           SKY/WX    TMP DP  RH WIND       PRES   REMARKS
AMARILLO       CLEAR     25  21  85 SW21      29.72F WCI  11          
BORGER         CLEAR     29  22  75 SW20G26   29.72F WCI  16          
CANADIAN       CLEAR     23  22  94 S6        29.79S WCI  16          
DALHART        CLEAR     14   9  80 N7        29.71R WCI   4          
DUMAS          CLEAR     21  18  88 SW15      29.70F WCI   7          
GUYMON         CLOUDY    24  18  77 SW14      29.70F HAZE    WCI  12  
HEREFORD       CLEAR     27  23  85 W18       29.78F FOG     WCI  14  
PAMPA          CLEAR     20  18  93 S8        29.75F WCI  10          
PERRYTON         N/A     16  14  91 S5        29.72F WCI   9          
$$

TXZ026-029-035-045-048-201000-
SOUTHERN PANHANDLE/SOUTH PLAINS/ROLLING PLAINS
  
CITY           SKY/WX    TMP DP  RH WIND       PRES   REMARKS
CHILDRESS      CLEAR     24  22  91 S7        29.87F WCI  16          
SEMINOLE       CLEAR     25  18  75 SW8       29.94R WCI  16          
LUBBOCK        CLEAR     23  19  85 SW9       29.84F WCI  13          
PLAINVIEW      CLEAR     21  18  87 SW8       29.80F WCI  12          
SNYDER         CLEAR     24  24 100 SW8       29.93F FOG     WCI  15  
$$

TXZ052-054-060>062-072-078-127-140-154-169-201000-
PERMIAN BASIN/CONCHO VALLEY/BIG COUNTRY/EDWARDS PLATEAU  
  
CITY           SKY/WX    TMP DP  RH WIND       PRES   REMARKS
ABILENE        CLOUDY    33  31  92 W9        29.94F WCI  25          
BIG SPRING     CLEAR     26  24  89 S10       29.95F WCI  16          
BRADY          CLOUDY    32  32 100 NW9       29.95S FOG     WCI  24  
BROWNWOOD      CLOUDY    36  32  87 NW6       29.96S WCI  31          
JUNCTION       CLOUDY    35  32  88 CALM      29.98R                  
MIDLAND        CLOUDY    30  24  78 SW8       29.92S WCI  22          
ODESSA         CLEAR     26  20  77 SW8       29.93R WCI  18          
SAN ANGELO     CLEAR     28  25  88 SW3       29.95S FOG              
SONORA         FOG       30  30 100 CALM      30.01R VSB 1/4          
SWEETWATER     CLOUDY    29  29 100 CALM      29.95S VSB 1/2          
WINK           CLEAR     27  18  69 W6        29.93S WCI  20          
$$

TXZ055-058-074-075-080-082-201000-
FAR WEST/SOUTHWEST MOUNTAINS/TRANS PECOS
  
CITY           SKY/WX    TMP DP  RH WIND       PRES   REMARKS
ALPINE         CLOUDY    34  15  46 W9        30.00S WCI  27          
DRYDEN           N/A     32  25  75 S5        29.97R WCI  27          
EL PASO        PTCLDY    36  13  38 N10       29.97F WCI  28          
FORT STOCKTON  CLEAR     31  21  66 SW9       29.97S WCI  23          
GUADALUPE PASS CLEAR     28   9  44 SW29G38   29.87F WCI  12          
MARFA          CLOUDY    33  13  43 CALM      29.97                   
PECOS          CLEAR     38  15  38 W18       29.96S WCI  28          
PRESIDIO       FAIR      44  22  42 SW5       30.00S                  
$$

TXZ014-016-019-021>030-083-201000
TEXAS TECH WEST TEXAS MESONET/TEXAS PANHANDLE/NORTHERN SOUTH PLAINS
  
CITY           SKY/WX    TMP DP  RH WIND       PRES   REMARKS
ABERNATHY 5ENE   N/A     22  18  85 SW12      29.84S WCI  10          
AMARILLO 9NNE    N/A     27  22  80 SW16      29.75S WCI  15          
AMARILLO 7SSE    N/A     24  21  89 SW17      29.76S WCI  10          
AMHERST 1NE      N/A     24  19  79 SW16      29.81F WCI  11          
BOOTLEG 11WNW    N/A     22  18  84 SW22      29.78S WCI   7          
CANADIAN 6E      N/A     22  21  97 SE7       29.77S WCI  13          
CAPROCK CYN SP   N/A     27  22  82 SW13      29.82S WCI  16          
CHILDRESS 2NNE   N/A     24  23  95 S9        29.86F WCI  14          
CLARENDON 2WSW   N/A     23  20  91 S12       29.78F WCI  11          
CLAUDE 12SW      N/A     29  21  72 SW18      29.76F WCI  16          
DIMMITT 2NE      N/A     25  20  82 SW25      29.77F WCI   9          
FLOYDADA 2NNE    N/A     22  19  89 S12       29.82F WCI  10          
FRIONA 2NE       N/A     22  20  90 W15       29.80S WCI   9          
GOODLETT 3W      N/A     24  23  96 SW2       29.87F                  
HART 3N          N/A     18  16  94 SW9       29.79F WCI   6          
HEREFORD 2NW     N/A     24  19  84 W15       29.78S WCI  11          
MCLEAN 1E        N/A     21  20  94 S13       29.76F WCI   9          
MEMPHIS 1NE      N/A     21  20  97 S3        29.84F                  
MULESHOE 2SSW    N/A     22  19  89 SW12      29.82S WCI  11          
OLTON 6S         N/A     22  18  85 SW14      29.81S WCI   9          
PALO DURO SP     N/A     24  19  81 SW13      29.77F WCI  12          
PAMPA 2E         N/A     19  19  98 S6        29.75S WCI  11          
PLAINVIEW 1S     N/A     22  20  91 SW5       29.81S WCI  16          
SILVERTON 7ESE   N/A     23  20  89 SW14      29.81S WCI  11          
TULIA 2ENE       N/A     23  19  83 SW14      29.79F WCI  11          
TURKEY 2WSW      N/A     26  22  84 S16       29.82S WCI  13          
UMBARGER 3NNE    N/A     24  21  87 SW21      29.76F WCI   9          
$$

TXZ033>036-039>041-045>048-201000
TEXAS TECH WEST TEXAS MESONET/SOUTH PLAINS  
  
CITY           SKY/WX    TMP DP  RH WIND       PRES   REMARKS
AIKEN 3WSW       N/A     20  18  91 SW12      29.82F WCI   8          
ANDREWS 2NE      N/A     28  18  65 SW10      29.91R WCI  19          
ANTON 6SSW       N/A     20  16  84 SW8       29.84F WCI  10          
BROWNFIELD 2S    N/A     23  17  78 SW10      29.87S WCI  12          
DENVR CTY 7WNW   N/A     23  17  78 W9        29.86S WCI  13          
GAIL 2ESE        N/A     24  21  89 SW9       29.91F WCI  14          
LAMESA 2SE       N/A     19  17  92 S7        29.91S WCI  10          
LUBBOCK 3WNW     N/A     23  19  84 SW6       29.85S WCI  16          
MORTON 1ENE      N/A     25  19  76 W13       29.83S WCI  14          
ODONNELL 1N      N/A     22  19  89 S7        29.89S WCI  14          
PLAINS 3N        N/A     20  16  83 W7        29.85F WCI  12          
RALLS 1SE        N/A     19  17  89 S10       29.86F WCI   8          
REESE CENTER     N/A     19  14  82 SW9       29.84F WCI   8          
SEAGRAVES 1SW    N/A     20  16  84 S6        29.88R WCI  12          
SEMINOLE 2NNE    N/A     24  17  75 SW5       29.89R WCI  18          
SLATON 2NE       N/A     22  20  92 S13       29.86F WCI  10          
SNYDER 3E        N/A     26  25  99 SW7       29.91F WCI  18          
SUNDOWN 8SW      N/A     22  17  83 W10       29.84F WCI  11          
TAHOKA 3NNE      N/A     22  19  88 W9        29.87S WCI  11          
WOLFFORTH 6SSW   N/A     21  16  82 SW12      29.86S WCI   9          
$$

TXZ031-032-036>038-042>044-201000-
TEXAS TECH WEST TEXAS MESONET/ROLLING PLAINS 
  
CITY           SKY/WX    TMP DP  RH WIND       PRES   REMARKS
ASPERMONT 3NE    N/A     27  25  94 S7        29.93S WCI  19          
FLUVANNA 3WNW    N/A     22  20  94 SW7       29.90S WCI  13          
GRAHAM 5SSW      N/A     24  22  96 S7        29.89S WCI  15          
GUTHRIE 10WSW    N/A     26  24  91 S13       29.89S WCI  15          
HASKELL 1NW      N/A     30  28  90 SW6       29.93S WCI  24          
JAYTON 1SSE      N/A     25  23  92 SW8       29.92S WCI  16          
KNOX CITY 3NW    N/A     30  28  92 S8        29.93S WCI  23          
LK A HENRY 1NW   N/A     22  22  96 SW5       29.91F WCI  16          
NORTHFIELD 1S    N/A     22  20  91 SW5       29.85F WCI  16          
ODELL 4ENE       N/A     28  26  94 S6        29.91S WCI  21          
PADUCAH 10SW     N/A     26  26  97 SW16      29.86F WCI  14          
POST 1NE         N/A     25  23  92 S8        29.89F WCI  16          
RRING SPRGS 3N   N/A     22  22  99 SW8       29.84F WCI  13          
SEYMOUR 3NW      N/A     30  28  92 S6        29.92F WCI  24          
SPUR 1W          N/A     24  22  95 CALM      29.90R                  
WEINERT 2NNE     N/A     31  28  86 SW8       29.93S WCI  24          
WHITE RVR 6NE    N/A     26  24  90 SW10      29.87F WCI  16          
$$

TXZ052-054-060>062-072-078-127-140-154-169-201000-
TEXAS TECH WEST TEXAS MESONET/PERMIAN BASIN/
CONCHO VALLEY/BIG COUNTRY/EDWARDS PLATEAU
  
CITY           SKY/WX    TMP DP  RH WIND       PRES   REMARKS
COYANOSA 2N      N/A     38  17  41 SW9       29.97R WCI  32          
JUNCTION 1SSW    N/A     35  33  92 NW1       29.98R                  
MERTZON 3NNE     N/A     25  23  94 SW5       29.96F WCI  19          
SAN ANGELO 7NW   N/A     26  23  89 W3        29.96S                  
STRLNG CT 4WSW   N/A     22  20  93 S1        29.96R                  
ST LAWRNCE 5SW   N/A     24  21  86 S7        29.94S WCI  16          
SWEETWATR 11SW   N/A     27  26  97 S3        29.93F                  
WALL 1E          N/A     29  28  96 SW6       29.96F WCI  23          
$$

TXZ055-058-074-075-080-082-201000-
TEXAS TECH WEST TEXAS MESONET/FAR WEST/SOUTHWEST MOUNTAINS/TRANS PECOS
  
CITY           SKY/WX    TMP DP  RH WIND       PRES   REMARKS
PRSMN GAP BBNP   N/A     36  24  61 CALM      29.99S                  
GUADLPE MTN NP   N/A     29   5  36 W15       29.88S WCI  18          
$$